Retour au catalogue

STARLINK-34925

ActifCommunicationsSSO
NORAD 65249·PAYLOAD·🇺🇸 United States

Lancé Aug 18, 2025 depuis Vandenberg Space Force Base

Loading…

Prochains Passages (prochaines 24 heures)

TLE

FraisSource: CelesTrak SupGP

Époque: Sep 14, 2026, 21:28 UTC

1 65249C 25179Q   26257.89493056  .00007463  00000+0  23175-3 0  2573
2 65249  97.2829 297.3027 0001233  93.0805 271.4539 15.33425143    12

Suivez STARLINK-34925 en temps réel avec AllMySat

Download on the App Store